Weather History for Nashua, NH

Change the Weather History Date:

Tuesday, January 8, 2013

  Actual Average Record
Temperature  
Mean Temperature 26 °F -  
Max Temperature 43 °F 30 °F 66 °F (2008)
Min Temperature 10 °F 12 °F -10 °F (1968)
Degree Days  
Heating Degree Days 38    
Moisture  
Dew Point 17 °F    
Average Humidity 71    
Maximum Humidity 85    
Minimum Humidity 42    
Precipitation  
Precipitation 0.07 in - - ()
Sea Level Pressure  
Sea Level Pressure 30.33 in    
Wind  
Wind Speed 3 mph (SSW)    
Max Wind Speed 7 mph    
Max Gust Speed -    
Visibility 10 miles    
Events      
Averages and records for this station are not official NWS values.
T = Trace of Precipitation, MM = Missing Value Source: NWS Daily Summary

Daily Weather History Graph

Daily Weather History Graph

Search for Another Location

Airport:

Trip Planner

Search our weather history database for the weather conditions in past years. The results will help you decide how hot, cold, wet, or windy it might be!

Date:

Astronomy

Jan. 08, 2013 Rise Set
Actual Time 7:16 AM EST 4:29 PM EST
Civil Twilight 6:44 AM EST 5:01 PM EST
Nautical Twilight 6:09 AM EST 5:36 PM EST
Astronomical Twilight 5:35 AM EST 6:11 PM EST
Moon 3:45 AM EST (1/8) 1:29 PM EST (1/8)
Length of Visible Light 10h 17m
Length of Day
9h 13m
Waning Crescent, 14% of the Moon is Illuminated
Jan 8
Waning Crescent
Jan 11
New
Jan 18
First Quarter
Jan 26
Full
Feb 3
Last Quarter

Hourly Weather History & Observations

Time (EST) Temp. Windchill Dew Point Humidity Pressure Visibility Wind Dir Wind Speed Gust Speed Precip Events Conditions
12:51 AM 12.0 °F 2.7 °F 6.1 °F 77% 30.36 in 10.0 mi SSE 5.8 mph - N/A   Clear
1:51 AM 12.0 °F - 8.1 °F 84% 30.36 in 10.0 mi Calm Calm - N/A   Clear
2:51 AM 12.0 °F - 8.1 °F 84% 30.34 in 10.0 mi Calm Calm - N/A   Clear
3:51 AM 13.1 °F - 9.1 °F 84% 30.32 in 10.0 mi Calm Calm - N/A   Clear
4:51 AM 10.0 °F 3.6 °F 5.0 °F 80% 30.31 in 10.0 mi SE 3.5 mph - N/A   Clear
5:51 AM 10.0 °F 3.6 °F 5.0 °F 80% 30.31 in 10.0 mi NNW 3.5 mph - N/A   Clear
6:51 AM 11.1 °F - 7.2 °F 84% 30.31 in 10.0 mi Calm Calm - N/A   Clear
7:51 AM 12.0 °F 5.9 °F 7.2 °F 81% 30.34 in 9.0 mi Variable 3.5 mph - N/A   Clear
8:51 AM 16.2 °F - 10.0 °F 77% 30.35 in 9.0 mi Calm Calm - N/A   Clear
9:51 AM 31.1 °F 26.4 °F 21.0 °F 66% 30.34 in 10.0 mi Variable 4.6 mph - N/A   Clear
10:51 AM 39.9 °F 35.1 °F 23.0 °F 51% 30.31 in 10.0 mi Variable 6.9 mph - N/A   Clear
11:51 AM 43.0 °F 38.8 °F 23.0 °F 45% 30.29 in 10.0 mi Variable 6.9 mph - 0.03 in   Clear
12:51 PM 43.9 °F 41.3 °F 23.0 °F 44% 30.28 in 10.0 mi WSW 4.6 mph - 0.01 in   Clear
1:51 PM 43.9 °F - 22.1 °F 42% 30.27 in 10.0 mi North - - 0.01 in   Clear
2:51 PM 43.0 °F - 23.0 °F 45% 30.29 in 10.0 mi North - - 0.01 in   Clear
3:51 PM 41.9 °F 40.0 °F 23.0 °F 47% 30.30 in 10.0 mi Variable 3.5 mph - 0.01 in   Clear
4:51 PM 37.9 °F - 24.1 °F 57% 30.30 in 10.0 mi Calm Calm - N/A   Clear
5:51 PM 30.0 °F - 24.1 °F 79% 30.32 in 10.0 mi Calm Calm - N/A   Clear
6:51 PM 27.1 °F - 23.0 °F 84% 30.35 in 10.0 mi Calm Calm - N/A   Clear
7:51 PM 27.1 °F - 22.1 °F 81% 30.36 in 10.0 mi Calm Calm - N/A   Clear
8:51 PM 26.1 °F - 22.1 °F 85% 30.37 in 10.0 mi North - - N/A   Clear
9:51 PM 25.2 °F - 21.0 °F 84% 30.36 in 10.0 mi North - - N/A   Clear
10:51 PM 25.2 °F - 20.1 °F 81% 30.37 in 10.0 mi North - - N/A   Clear
11:51 PM 25.2 °F - 21.0 °F 84% 30.38 in 10.0 mi North - - N/A   Clear